| time (UTC) | temp F | wind direction | speed MPH | gust MPH | rain 1hr in | rain 24hr in | rain mn in | humidity % | barometer mb |
| 20260902113002 | 73 | 247 | 0.0 | 0.0 | 0.00 | 0.00 | 0.00 | 94 | 1017.1 |
| 20260902111002 | 73 | 233 | 0.0 | 0.0 | 0.00 | 0.00 | 0.00 | 94 | 1017.1 |
| 20260902110003 | 73 | 238 | 0.0 | 0.0 | 0.00 | 0.00 | 0.00 | 94 | 1017.0 |
| 20260902105502 | 73 | 234 | 0.0 | 0.0 | 0.00 | 0.00 | 0.00 | 94 | 1017.0 |
| 20260902103502 | 73 | 229 | 1.0 | 3.0 | 0.00 | 0.00 | 0.00 | 94 | 1016.9 |
| 20260902102501 | 74 | 241 | 0.0 | 2.0 | 0.00 | 0.00 | 0.00 | 95 | 1016.8 |
| 20260902102002 | 74 | 224 | 0.0 | 0.0 | 0.00 | 0.00 | 0.00 | 95 | 1016.9 |
| 20260902101002 | 74 | 230 | 0.0 | 0.0 | 0.00 | 0.00 | 0.00 | 95 | 1016.9 |
| 20260902100002 | 74 | 240 | 0.0 | 0.0 | 0.00 | 0.00 | 0.00 | 95 | 1016.9 |
| 20260902095502 | 74 | 213 | 0.0 | 3.0 | 0.00 | 0.00 | 0.00 | 95 | 1016.9 |
| 20260902095002 | 74 | 238 | 0.0 | 2.0 | 0.00 | 0.00 | 0.00 | 95 | 1016.5 |
| 20260902094002 | 74 | 219 | 2.0 | 3.0 | 0.00 | 0.00 | 0.00 | 94 | 1016.7 |
| 20260902093002 | 74 | 230 | 0.0 | 2.0 | 0.00 | 0.00 | 0.00 | 94 | 1016.6 |
| 20260902092502 | 74 | 237 | 0.0 | 0.0 | 0.00 | 0.00 | 0.00 | 94 | 1016.8 |
| 20260902091001 | 75 | 236 | 0.0 | 0.0 | 0.00 | 0.00 | 0.00 | 93 | 1016.9 |
| 20260902090502 | 75 | 236 | 0.0 | 0.0 | 0.00 | 0.00 | 0.00 | 93 | 1017.0 |
| 20260902090004 | 75 | 237 | 0.0 | 0.0 | 0.00 | 0.00 | 0.00 | 93 | 1016.8 |
| 20260902084002 | 74 | 237 | 0.0 | 0.0 | 0.00 | 0.00 | 0.00 | 93 | 1016.6 |
| 20260902083002 | 75 | 236 | 0.0 | 0.0 | 0.00 | 0.00 | 0.00 | 93 | 1016.7 |
| 20260902082502 | 75 | 237 | 0.0 | 0.0 | 0.00 | 0.00 | 0.00 | 92 | 1016.6 |
| 20260902082002 | 75 | 232 | 0.0 | 0.0 | 0.00 | 0.00 | 0.00 | 92 | 1016.6 |
| 20260902080502 | 76 | 234 | 1.0 | 2.0 | 0.00 | 0.00 | 0.00 | 91 | 1016.4 |
| 20260902074002 | 75 | 223 | 1.0 | 3.0 | 0.00 | 0.00 | 0.00 | 92 | 1016.3 |
| 20260902072002 | 75 | 218 | 0.0 | 0.0 | 0.00 | 0.00 | 0.00 | 94 | 1016.3 |
| 20260902065502 | 76 | 246 | 0.0 | 0.0 | 0.00 | 0.00 | 0.00 | 93 | 1016.5 |
| 20260902064501 | 76 | 241 | 0.0 | 0.0 | 0.00 | 0.00 | 0.00 | 92 | 1016.5 |
| 20260902064002 | 76 | 238 | 0.0 | 0.0 | 0.00 | 0.00 | 0.00 | 92 | 1016.3 |
| 20260902063502 | 76 | 249 | 0.0 | 0.0 | 0.00 | 0.00 | 0.00 | 92 | 1016.6 |
| 20260902062502 | 76 | 246 | 0.0 | 0.0 | 0.00 | 0.00 | 0.00 | 92 | 1016.6 |
| 20260902062002 | 76 | 243 | 0.0 | 0.0 | 0.00 | 0.00 | 0.00 | 92 | 1016.4 |
| 20260902061002 | 76 | 227 | 0.0 | 0.0 | 0.00 | 0.00 | 0.00 | 92 | 1016.3 |
| 20260902060502 | 76 | 232 | 0.0 | 2.0 | 0.00 | 0.00 | 0.00 | 92 | 1016.3 |
| 20260902060037 | 76 | 230 | 0.0 | 0.0 | 0.00 | 0.00 | 0.00 | 92 | 1016.5 |
| 20260902055002 | 76 | 197 | 0.0 | 0.0 | 0.00 | 0.00 | 0.00 | 92 | 1016.3 |
| 20260902054501 | 76 | 223 | 0.0 | 0.0 | 0.00 | 0.00 | 0.00 | 92 | 1016.7 |
| 20260902054002 | 76 | 228 | 0.0 | 0.0 | 0.00 | 0.00 | 0.00 | 92 | 1016.8 |
| 20260902053502 | 76 | 214 | 0.0 | 0.0 | 0.00 | 0.00 | 0.00 | 92 | 1016.7 |
| 20260902053002 | 76 | 216 | 0.0 | 0.0 | 0.00 | 0.00 | 0.00 | 92 | 1016.6 |
| 20260902052502 | 76 | 231 | 0.0 | 0.0 | 0.00 | 0.00 | 0.00 | 92 | 1016.7 |
| 20260902051501 | 76 | 224 | 0.0 | 0.0 | 0.00 | 0.00 | 0.00 | 92 | 1016.4 |
| 20260902045502 | 77 | 211 | 0.0 | 0.0 | 0.00 | 0.00 | 0.09 | 91 | 1016.5 |
| 20260902044502 | 78 | 233 | 0.0 | 0.0 | 0.00 | 0.00 | 0.09 | 91 | 1016.6 |
| 20260902043501 | 78 | 242 | 0.0 | 0.0 | 0.00 | 0.00 | 0.09 | 91 | 1016.7 |
| 20260902041502 | 78 | 230 | 0.0 | 0.0 | 0.00 | 0.00 | 0.09 | 90 | 1016.8 |
| 20260902035502 | 79 | 241 | 0.0 | 0.0 | 0.00 | 0.00 | 0.09 | 88 | 1016.7 |
| 20260902035002 | 80 | 267 | 0.0 | 0.0 | 0.00 | 0.00 | 0.09 | 88 | 1016.7 |
| 20260902031002 | 81 | 277 | 0.0 | 3.0 | 0.00 | 0.00 | 0.09 | 86 | 1016.6 |
| 20260902030002 | 81 | 269 | 0.0 | 0.0 | 0.00 | 0.00 | 0.09 | 86 | 1016.6 |
| 20260902025502 | 81 | 279 | 0.0 | 0.0 | 0.00 | 0.00 | 0.09 | 85 | 1016.9 |
| 20260902025002 | 81 | 272 | 0.0 | 0.0 | 0.00 | 0.00 | 0.09 | 86 | 1016.5 |
| 20260902024502 | 81 | 270 | 0.0 | 0.0 | 0.00 | 0.00 | 0.09 | 86 | 1016.6 |
| 20260902023502 | 81 | 274 | 0.0 | 3.0 | 0.00 | 0.00 | 0.09 | 86 | 1016.6 |
| 20260902023002 | 81 | 272 | 0.0 | 4.0 | 0.00 | 0.00 | 0.09 | 86 | 1016.7 |
| 20260902022501 | 82 | 272 | 0.0 | 0.0 | 0.00 | 0.00 | 0.09 | 85 | 1016.6 |
| 20260902022002 | 82 | 238 | 0.0 | 0.0 | 0.00 | 0.00 | 0.09 | 85 | 1016.6 |
| 20260902021002 | 82 | 271 | 0.0 | 0.0 | 0.00 | 0.00 | 0.09 | 84 | 1016.4 |
| 20260902020502 | 82 | 267 | 0.0 | 2.0 | 0.00 | 0.00 | 0.09 | 84 | 1016.6 |
| 20260902020002 | 82 | 273 | 0.0 | 0.0 | 0.00 | 0.00 | 0.09 | 85 | 1016.3 |
| 20260902015002 | 82 | 267 | 0.0 | 0.0 | 0.00 | 0.00 | 0.09 | 86 | 1016.5 |
| 20260902014502 | 82 | 262 | 0.0 | 0.0 | 0.00 | 0.00 | 0.09 | 86 | 1016.3 |
| 20260902014002 | 82 | 277 | 0.0 | 0.0 | 0.00 | 0.00 | 0.09 | 86 | 1016.4 |
| 20260902013501 | 83 | 277 | 0.0 | 0.0 | 0.00 | 0.00 | 0.09 | 86 | 1016.2 |
| 20260902013002 | 83 | 269 | 0.0 | 0.0 | 0.00 | 0.00 | 0.09 | 85 | 1015.9 |
| 20260902012501 | 83 | 283 | 0.0 | 0.0 | 0.00 | 0.00 | 0.09 | 85 | 1016.0 |
| 20260902012002 | 83 | 279 | 0.0 | 3.0 | 0.00 | 0.00 | 0.09 | 85 | 1015.8 |
| 20260902011002 | 83 | 279 | 0.0 | 0.0 | 0.00 | 0.00 | 0.09 | 85 | 1016.1 |
| 20260902010002 | 84 | 279 | 0.0 | 0.0 | 0.00 | 0.00 | 0.09 | 85 | 1016.0 |
| 20260902004002 | 85 | 273 | 0.0 | 2.0 | 0.00 | 0.00 | 0.09 | 83 | 1015.9 |
| 20260902003502 | 86 | 278 | 1.0 | 2.0 | 0.00 | 0.00 | 0.09 | 82 | 1015.7 |
| 20260902002001 | 86 | 271 | 0.0 | 0.0 | 0.00 | 0.00 | 0.09 | 81 | 1015.7 |
| 20260902001002 | 87 | 275 | 1.0 | 3.0 | 0.00 | 0.00 | 0.09 | 81 | 1015.8 |
| 20260902000501 | 87 | 275 | 0.0 | 0.0 | 0.00 | 0.00 | 0.09 | 81 | 1015.8 |
| 20260901235502 | 88 | 280 | 0.0 | 3.0 | 0.00 | 0.09 | 0.09 | 79 | 1015.8 |
| 20260901234001 | 90 | 262 | 0.0 | 4.0 | 0.00 | 0.00 | 0.09 | 75 | 1016.0 |
| 20260901233502 | 90 | 224 | 1.0 | 2.0 | 0.00 | 0.00 | 0.09 | 73 | 1015.9 |
| 20260901232002 | 92 | 279 | 0.0 | 0.0 | 0.00 | 0.00 | 0.09 | 70 | 1016.0 |
| 20260901231501 | 92 | 276 | 0.0 | 0.0 | 0.00 | 0.00 | 0.09 | 70 | 1016.1 |
| 20260901230002 | 92 | 245 | 1.0 | 2.0 | 0.00 | 0.00 | 0.09 | 70 | 1015.9 |
| 20260901225502 | 92 | 278 | 0.0 | 2.0 | 0.00 | 0.00 | 0.09 | 71 | 1016.2 |
| 20260901225002 | 92 | 273 | 0.0 | 0.0 | 0.00 | 0.00 | 0.09 | 71 | 1016.0 |
| 20260901224502 | 92 | 285 | 0.0 | 0.0 | 0.00 | 0.00 | 0.09 | 70 | 1016.0 |
| 20260901223503 | 93 | 271 | 0.0 | 2.0 | 0.00 | 0.00 | 0.09 | 70 | 1016.0 |
| 20260901223002 | 93 | 271 | 0.0 | 0.0 | 0.00 | 0.00 | 0.09 | 69 | 1015.8 |
| 20260901222002 | 93 | 272 | 0.0 | 3.0 | 0.00 | 0.00 | 0.09 | 68 | 1016.2 |
| 20260901221002 | 93 | 285 | 0.0 | 4.0 | 0.00 | 0.00 | 0.09 | 70 | 1015.9 |
| 20260901220502 | 93 | 272 | 1.0 | 3.0 | 0.00 | 0.00 | 0.09 | 68 | 1016.1 |
| 20260901220002 | 94 | 257 | 1.0 | 3.0 | 0.00 | 0.00 | 0.09 | 69 | 1015.9 |
| 20260901215502 | 94 | 276 | 1.0 | 2.0 | 0.00 | 0.00 | 0.09 | 68 | 1016.0 |
| 20260901214502 | 94 | 253 | 3.0 | 4.0 | 0.00 | 0.00 | 0.09 | 69 | 1016.2 |
| 20260901214002 | 93 | 249 | 2.0 | 4.0 | 0.00 | 0.00 | 0.09 | 69 | 1016.0 |
| 20260901213502 | 93 | 259 | 3.0 | 5.0 | 0.00 | 0.00 | 0.09 | 71 | 1016.1 |
| 20260901212002 | 93 | 260 | 2.0 | 4.0 | 0.00 | 0.00 | 0.09 | 68 | 1016.0 |
| 20260901211502 | 93 | 243 | 1.0 | 5.0 | 0.00 | 0.00 | 0.09 | 68 | 1016.1 |
| 20260901210502 | 94 | 268 | 3.0 | 3.0 | 0.00 | 0.00 | 0.09 | 68 | 1016.2 |
| 20260901210002 | 94 | 228 | 2.0 | 4.0 | 0.00 | 0.00 | 0.09 | 69 | 1016.2 |
| 20260901205003 | 94 | 263 | 2.0 | 7.0 | 0.00 | 0.00 | 0.09 | 70 | 1016.1 |
| 20260901204002 | 94 | 257 | 2.0 | 6.0 | 0.00 | 0.00 | 0.09 | 70 | 1016.4 |
| 20260901203502 | 94 | 274 | 1.0 | 3.0 | 0.00 | 0.00 | 0.09 | 71 | 1016.2 |
| 20260901203002 | 94 | 204 | 4.0 | 7.0 | 0.00 | 0.00 | 0.09 | 71 | 1016.2 |
| 20260901200002 | 94 | 249 | 0.0 | 4.0 | 0.00 | 0.00 | 0.09 | 69 | 1016.3 |
| 20260901195005 | 93 | 261 | 1.0 | 3.0 | 0.00 | 0.00 | 0.09 | 68 | 1016.3 |
| 20260901194002 | 93 | 182 | 2.0 | 4.0 | 0.00 | 0.00 | 0.09 | 71 | 1016.5 |
| 20260901193502 | 93 | 203 | 3.0 | 6.0 | 0.00 | 0.00 | 0.09 | 72 | 1016.3 |
| 20260901191002 | 92 | 267 | 1.0 | 5.0 | 0.00 | 0.00 | 0.09 | 71 | 1016.9 |
| 20260901190003 | 92 | 242 | 4.0 | 7.0 | 0.00 | 0.00 | 0.09 | 74 | 1016.8 |
| 20260901185501 | 92 | 265 | 3.0 | 5.0 | 0.00 | 0.00 | 0.09 | 72 | 1016.7 |
| 20260901183501 | 91 | 265 | 3.0 | 5.0 | 0.00 | 0.00 | 0.09 | 75 | 1016.7 |
| 20260901183002 | 91 | 232 | 1.0 | 3.0 | 0.00 | 0.00 | 0.09 | 76 | 1016.9 |
| 20260901182502 | 90 | 220 | 4.0 | 5.0 | 0.00 | 0.00 | 0.09 | 75 | 1016.9 |
| 20260901181002 | 90 | 293 | 3.0 | 7.0 | 0.00 | 0.00 | 0.09 | 76 | 1016.9 |
| 20260901180502 | 91 | 271 | 2.0 | 3.0 | 0.00 | 0.00 | 0.09 | 76 | 1017.0 |
| 20260901175502 | 90 | 266 | 2.0 | 7.0 | 0.00 | 0.00 | 0.09 | 78 | 1016.8 |
| 20260901174002 | 89 | 191 | 4.0 | 6.0 | 0.00 | 0.00 | 0.09 | 78 | 1017.0 |
| 20260901172002 | 88 | 267 | 0.0 | 3.0 | 0.00 | 0.00 | 0.09 | 79 | 1017.3 |
| 20260901170502 | 88 | 210 | 3.0 | 5.0 | 0.00 | 0.00 | 0.09 | 80 | 1017.3 |
| 20260901165502 | 88 | 251 | 1.0 | 3.0 | 0.00 | 0.00 | 0.09 | 80 | 1017.2 |
| 20260901165002 | 88 | 239 | 2.0 | 5.0 | 0.00 | 0.00 | 0.09 | 79 | 1017.3 |
| 20260901164502 | 89 | 247 | 5.0 | 7.0 | 0.00 | 0.00 | 0.09 | 77 | 1017.2 |
| 20260901162501 | 87 | 272 | 1.0 | 4.0 | 0.00 | 0.00 | 0.09 | 79 | 1017.5 |
| 20260901155502 | 86 | 259 | 2.0 | 6.0 | 0.00 | 0.00 | 0.09 | 81 | 1017.6 |
| 20260901155002 | 86 | 208 | 2.0 | 5.0 | 0.00 | 0.00 | 0.09 | 84 | 1017.4 |
| 20260901154502 | 85 | 286 | 1.0 | 5.0 | 0.00 | 0.00 | 0.09 | 83 | 1017.2 |
| 20260901154002 | 86 | 275 | 1.0 | 4.0 | 0.00 | 0.00 | 0.09 | 80 | 1017.5 |
| 20260901152502 | 84 | 285 | 1.0 | 4.0 | 0.00 | 0.00 | 0.09 | 81 | 1017.3 |
| 20260901152002 | 85 | 264 | 1.0 | 3.0 | 0.00 | 0.00 | 0.09 | 82 | 1017.2 |
| 20260901151502 | 85 | 283 | 1.0 | 3.0 | 0.00 | 0.00 | 0.09 | 81 | 1017.3 |
| 20260901150502 | 84 | 279 | 2.0 | 3.0 | 0.00 | 0.00 | 0.09 | 82 | 1017.4 |
| 20260901150002 | 83 | 275 | 2.0 | 4.0 | 0.00 | 0.00 | 0.09 | 84 | 1017.3 |
| 20260901145002 | 82 | 259 | 0.0 | 0.0 | 0.00 | 0.00 | 0.09 | 87 | 1017.2 |
| 20260901144501 | 81 | 271 | 1.0 | 5.0 | 0.00 | 0.00 | 0.09 | 87 | 1017.2 |
| 20260901144002 | 82 | 270 | 0.0 | 2.0 | 0.00 | 0.00 | 0.09 | 86 | 1017.2 |
| 20260901143502 | 82 | 267 | 1.0 | 3.0 | 0.00 | 0.00 | 0.09 | 85 | 1017.3 |
| 20260901143002 | 82 | 272 | 0.0 | 0.0 | 0.00 | 0.00 | 0.09 | 87 | 1017.2 |
| 20260901142502 | 81 | 180 | 1.0 | 2.0 | 0.00 | 0.00 | 0.09 | 87 | 1017.4 |
| 20260901141501 | 80 | 277 | 0.0 | 0.0 | 0.00 | 0.00 | 0.09 | 89 | 1017.2 |
| 20260901140002 | 78 | 278 | 0.0 | 0.0 | 0.00 | 0.00 | 0.09 | 91 | 1017.2 |
| 20260901135502 | 78 | 277 | 0.0 | 0.0 | 0.00 | 0.00 | 0.09 | 92 | 1017.3 |
| 20260901134502 | 77 | 291 | 0.0 | 2.0 | 0.00 | 0.00 | 0.09 | 94 | 1017.4 |
| 20260901131502 | 74 | 240 | 0.0 | 0.0 | 0.00 | 0.00 | 0.09 | 97 | 1017.3 |
| 20260901131102 | 74 | 279 | 0.0 | 2.0 | 0.00 | 0.00 | 0.09 | 98 | 1017.8 |
| 20260901130502 | 74 | 276 | 0.0 | 3.0 | 0.00 | 0.00 | 0.09 | 98 | 1017.7 |
| 20260901130004 | 74 | 276 | 0.0 | 2.0 | 0.00 | 0.00 | 0.09 | 98 | 1017.7 |
| 20260901125602 | 74 | 277 | 0.0 | 0.0 | 0.00 | 0.00 | 0.09 | 98 | 1017.7 |
| 20260901125101 | 74 | 271 | 0.0 | 4.0 | 0.00 | 0.00 | 0.09 | 99 | 1017.6 |
| 20260901124502 | 74 | 246 | 0.0 | 0.0 | 0.00 | 0.00 | 0.09 | 99 | 1017.5 |
| 20260901122503 | 73 | 220 | 0.0 | 0.0 | 0.00 | 0.00 | 0.09 | 99 | 1017.1 |
| 20260901121502 | 73 | 279 | 0.0 | 4.0 | 0.00 | 0.00 | 0.09 | 99 | 1017.1 |
| 20260901121002 | 73 | 226 | 0.0 | 2.0 | 0.00 | 0.00 | 0.09 | 99 | 1017.1 |
| 20260901120502 | 73 | 244 | 0.0 | 0.0 | 0.00 | 0.00 | 0.09 | 99 | 1017.0 |
| 20260901115502 | 73 | 284 | 0.0 | 0.0 | 0.00 | 0.00 | 0.09 | 99 | 1016.8 |
| 20260901114502 | 73 | 278 | 0.0 | 0.0 | 0.00 | 0.00 | 0.09 | 99 | 1016.8 |
| 20260901114002 | 72 | 211 | 1.0 | 4.0 | 0.00 | 0.00 | 0.09 | 99 | 1016.5 |